Change the Weather History Date:

Tuesday, October 18, 2011

  Actual Average Record
Temperature  
Mean Temperature 46 °F -  
Max Temperature 53 °F 59 °F 84 °F (1938)
Min Temperature 39 °F 40 °F 25 °F (1977)
Degree Days  
Heating Degree Days 19    
Moisture  
Dew Point 40 °F    
Average Humidity 78    
Maximum Humidity 100    
Minimum Humidity 62    
Precipitation  
Precipitation 0.00 in - - ()
Sea Level Pressure  
Sea Level Pressure 29.79 in    
Wind  
Wind Speed 3 mph (WSW)    
Max Wind Speed 7 mph    
Max Gust Speed -    
Visibility 10 miles    
Events Rain    
Averages and records for this station are not official NWS values.
T = Trace of Precipitation, MM = Missing Value Source: NWS Daily Summary

Daily Weather History Graph

Daily Weather History Graph

Search for Another Location

Airport or City:

Trip Planner

Search our weather history database for the weather conditions in past years. The results will help you decide how hot, cold, wet, or windy it might be!

Date:

Astronomy

Oct. 18, 2011 Rise Set
Actual Time 7:49 AM EDT 6:47 PM EDT
Civil Twilight 7:21 AM EDT 7:16 PM EDT
Nautical Twilight 6:48 AM EDT 7:48 PM EDT
Astronomical Twilight 6:16 AM EDT 8:20 PM EDT
Moon 11:24 PM EDT (10/18) 1:43 PM EDT (10/18)
Length of Visible Light 11h 55m
Length of Day
10h 58m
Waning Gibbous, 65% of the Moon is Illuminated
Oct 18
Waning Gibbous
Oct 19
Last Quarter
Oct 26
New
Nov 2
First Quarter
Nov 10
Full

Hourly Weather History & Observations

Time (EDT) Temp. Windchill Dew Point Humidity Pressure Visibility Wind Dir Wind Speed Gust Speed Precip Events Conditions
12:14 AM 46.4 °F - 33.8 °F 62% 29.80 in 10.0 mi Calm Calm - N/A   Clear
12:34 AM 46.4 °F 45.2 °F 33.8 °F 62% 29.80 in 10.0 mi WSW 3.5 mph - N/A   Clear
12:54 AM 44.6 °F 43.1 °F 33.8 °F 66% 29.80 in 10.0 mi SW 3.5 mph - N/A   Clear
1:15 AM 44.6 °F - 33.8 °F 66% 29.79 in 10.0 mi Calm Calm - N/A   Clear
1:35 AM 44.6 °F 43.1 °F 33.8 °F 66% 29.79 in 10.0 mi SW 3.5 mph - N/A   Clear
1:55 AM 44.6 °F 42.2 °F 33.8 °F 66% 29.79 in 10.0 mi SW 4.6 mph - N/A   Clear
2:15 AM 44.6 °F 42.2 °F 33.8 °F 66% 29.79 in 10.0 mi WSW 4.6 mph - N/A   Clear
2:35 AM 44.6 °F 40.7 °F 35.6 °F 71% 29.79 in 10.0 mi WSW 6.9 mph - N/A   Clear
2:55 AM 44.6 °F 41.4 °F 35.6 °F 71% 29.78 in 10.0 mi WSW 5.8 mph - N/A   Clear
3:10 AM 44.6 °F 42.2 °F 35.6 °F 71% 29.78 in 10.0 mi SW 4.6 mph - N/A   Clear
3:50 AM 42.8 °F 40.1 °F 35.6 °F 76% 29.77 in 10.0 mi WSW 4.6 mph - N/A   Clear
4:11 AM 42.8 °F 39.3 °F 37.4 °F 81% 29.77 in 10.0 mi WSW 5.8 mph - N/A   Clear
4:31 AM 42.8 °F 40.1 °F 37.4 °F 81% 29.77 in 10.0 mi WSW 4.6 mph - N/A   Clear
4:51 AM 42.8 °F 41.1 °F 37.4 °F 81% 29.78 in 10.0 mi SW 3.5 mph - N/A   Clear
5:11 AM 42.8 °F 41.1 °F 37.4 °F 81% 29.78 in 10.0 mi WSW 3.5 mph - N/A   Clear
5:31 AM 42.8 °F 41.1 °F 37.4 °F 81% 29.77 in 10.0 mi WSW 3.5 mph - N/A   Clear
5:51 AM 42.8 °F 41.1 °F 37.4 °F 81% 29.78 in 10.0 mi WSW 3.5 mph - N/A   Clear
6:11 AM 42.8 °F 40.1 °F 37.4 °F 81% 29.78 in 10.0 mi WSW 4.6 mph - N/A   Clear
6:31 AM 41.0 °F 39.0 °F 37.4 °F 87% 29.78 in 10.0 mi WSW 3.5 mph - N/A   Clear
6:51 AM 42.8 °F - 37.4 °F 81% 29.79 in 10.0 mi Calm Calm - N/A   Clear
7:11 AM 41.0 °F 39.0 °F 37.4 °F 87% 29.79 in 10.0 mi West 3.5 mph - N/A   Clear
7:32 AM 41.0 °F 39.0 °F 37.4 °F 87% 29.79 in 10.0 mi WSW 3.5 mph - N/A   Clear
7:52 AM 39.2 °F 37.0 °F 37.4 °F 93% 29.79 in 10.0 mi West 3.5 mph - N/A   Clear
8:12 AM 39.2 °F - 39.2 °F 100% 29.79 in 10.0 mi Calm Calm - N/A   Clear
8:32 AM 41.0 °F - 39.2 °F 93% 29.80 in 10.0 mi Calm Calm - N/A   Clear
8:52 AM 42.8 °F 41.1 °F 41.0 °F 93% 29.80 in 10.0 mi SW 3.5 mph - N/A   Clear
9:12 AM 44.6 °F 43.1 °F 39.2 °F 81% 29.81 in 10.0 mi SW 3.5 mph - N/A   Clear
9:32 AM 46.4 °F 42.9 °F 39.2 °F 76% 29.81 in 10.0 mi WSW 6.9 mph - N/A   Clear
10:13 AM 46.4 °F 42.9 °F 39.2 °F 76% 29.81 in 10.0 mi WSW 6.9 mph - N/A   Clear
10:33 AM 48.2 °F - 39.2 °F 71% 29.81 in 10.0 mi West 5.8 mph - N/A   Clear
10:53 AM 48.2 °F - 39.2 °F 71% 29.81 in 10.0 mi WSW 3.5 mph - N/A   Clear
11:13 AM 50.0 °F - 41.0 °F 71% 29.81 in 10.0 mi West 3.5 mph - N/A   Clear
11:33 AM 50.0 °F - 41.0 °F 71% 29.81 in 10.0 mi Calm Calm - N/A   Clear
11:53 AM 51.8 °F - 41.0 °F 67% 29.81 in 10.0 mi WNW 3.5 mph - N/A   Clear
12:13 PM 51.8 °F - 41.0 °F 67% 29.82 in 10.0 mi Calm Calm - N/A   Clear
12:33 PM 51.8 °F - 42.8 °F 71% 29.81 in 10.0 mi SW 3.5 mph - N/A   Clear
12:53 PM 53.6 °F - 42.8 °F 67% 29.81 in 10.0 mi Calm Calm - N/A   Clear
1:34 PM 53.6 °F - 42.8 °F 67% 29.80 in 10.0 mi Calm Calm - N/A   Clear
1:54 PM 53.6 °F - 42.8 °F 67% 29.80 in 10.0 mi Calm Calm - N/A   Scattered Clouds
2:14 PM 53.6 °F - 41.0 °F 62% 29.79 in 10.0 mi Calm Calm - N/A   Scattered Clouds
2:54 PM 53.6 °F - 42.8 °F 67% 29.79 in 10.0 mi Calm Calm - N/A   Scattered Clouds
3:14 PM 53.6 °F - 42.8 °F 67% 29.79 in 10.0 mi South 3.5 mph - N/A   Clear
3:34 PM 53.6 °F - 42.8 °F 67% 29.79 in 10.0 mi Calm Calm - N/A   Scattered Clouds
3:55 PM 53.6 °F - 42.8 °F 67% 29.80 in 10.0 mi SW 3.5 mph - N/A Rain Light Rain
4:15 PM 51.8 °F - 44.6 °F 76% 29.79 in 7.0 mi SSE 3.5 mph - N/A Rain Rain
4:35 PM 51.8 °F - 46.4 °F 82% 29.79 in 10.0 mi Calm Calm - N/A Rain Light Rain
4:52 PM 51.8 °F - 48.2 °F 88% 29.77 in 10.0 mi Calm Calm - N/A Rain Light Rain
5:12 PM 51.8 °F - 48.2 °F 88% 29.77 in 10.0 mi Calm Calm - N/A   Overcast
5:32 PM 50.0 °F - 50.0 °F 100% 29.77 in 7.0 mi Calm Calm - N/A Rain Rain
5:52 PM 50.0 °F - 50.0 °F 100% 29.79 in 10.0 mi Calm Calm - N/A   Overcast
6:12 PM 48.2 °F - 48.2 °F 100% 29.77 in 5.0 mi NNE 3.5 mph - N/A Rain Rain
6:32 PM 48.2 °F - 48.2 °F 100% 29.78 in 7.0 mi Calm Calm - N/A Rain Rain
7:13 PM 48.2 °F - 48.2 °F 100% 29.77 in 10.0 mi Calm Calm - N/A   Overcast
7:33 PM 48.2 °F - 48.2 °F 100% 29.79 in 10.0 mi Calm Calm - N/A   Drizzle
8:13 PM 48.2 °F - 48.2 °F 100% 29.82 in 7.0 mi Calm Calm - N/A Rain Light Rain
8:33 PM 48.2 °F - 48.2 °F 100% 29.80 in 7.0 mi North 3.5 mph - N/A Rain Light Rain
9:13 PM 46.4 °F 43.5 °F 46.4 °F 100% 29.79 in 5.0 mi North 5.8 mph - N/A Rain Light Rain
9:33 PM 46.4 °F 44.3 °F 46.4 °F 100% 29.78 in 5.0 mi North 4.6 mph - N/A Rain Light Rain
9:53 PM 46.4 °F - 46.4 °F 100% 29.79 in 7.0 mi Calm Calm - N/A   Light Drizzle
10:14 PM 46.4 °F 45.2 °F 46.4 °F 100% 29.79 in 5.0 mi NNW 3.5 mph - N/A   Mostly Cloudy
10:34 PM 46.4 °F - 46.4 °F 100% 29.80 in 5.0 mi Calm Calm - N/A   Overcast
10:54 PM 46.4 °F 44.3 °F 46.4 °F 100% 29.79 in 5.0 mi NNW 4.6 mph - N/A   Drizzle
11:14 PM 46.4 °F 42.4 °F 46.4 °F 100% 29.78 in 7.0 mi North 8.1 mph - N/A   Overcast
11:34 PM 46.4 °F 44.3 °F 46.4 °F 100% 29.77 in 7.0 mi North 4.6 mph - N/A   Overcast
11:54 PM 46.4 °F 45.2 °F 46.4 °F 100% 29.77 in 7.0 mi NNE 3.5 mph - N/A   Overcast